Lid_Strength_Index
5 5 4 4 3 3 5 8 8 8 6 6 5 5 5 5 2 2 2 2 2 2 2 2 2 6 7 8 8 8 9 12 16 18 16 17 17 17 17 17 16 17 16
5 5 4 4 4 3 3 5 8 9 8 6 6 5 5 5 3 3 3 3 3 3 4 5 9 9 10 10 11 11 11 12 14 17 17 17 18 17 18 18 17 17 17
6 5 4 4 5 5 5 5 7 9 10 7 6 5 6 7 9 4 4 7 6 7 9 10 12 12 13 13 13 13 13 14 15 17 19 18 18 18 19 18 18 19 18
6 6 5 4 6 6 5 5 7 9 11 11 7 8 9 11 12 12 13 13 15 15 14 14 14 14 14 14 15 15 15 15 16 17 18 19 19 18 19 20 19 19 20
7 6 6 6 6 6 6 6 6 10 13 13 12 12 12 12 13 14 15 15 16 16 16 16 17 16 16 15 15 15 15 16 17 18 19 19 20 20 20 19 19 19 20
7 7 6 7 6 7 7 7 8 9 12 13 15 13 14 14 13 14 15 16 16 16 17 17 17 17 16 15 15 15 15 16 17 18 19 19 19 19 19 19 19 19 21
7 7 7 7 8 8 8 8 10 10 11 14 14 14 16 15 14 14 15 16 16 17 17 17 18 18 17 18 17 17 17 16 15 16 18 19 20 19 19 20 20 20 21
8 8 8 8 8 8 9 9 12 12 13 14 15 15 16 16 14 15 16 17 17 17 18 18 18 19 19 19 19 20 20 19 19 19 20 20 20 19 19 20 20 21 21
9 9 9 8 8 9 10 10 11 13 13 14 15 14 14 15 14 15 16 17 18 19 18 18 18 18 17 17 19 19 20 19 17 17 17 17 18 18 19 19 20 20 21
10 9 9 9 9 10 10 11 12 13 14 14 14 15 14 15 14 14 16 17 18 19 18 18 17 17 16 17 18 19 20 21 21 22 22 21 21 20 20 20 20 21 21
10 10 9 9 10 10 11 11 13 14 14 14 15 15 15 15 14 13 15 17 18 18 18 18 17 16 16 16 17 19 20 20 20 22 22 22 22 22 22 22 21 20 20
11 11 11 11 10 10 11 12 13 14 14 14 15 15 15 14 14 14 14 15 15 17 18 18 17 16 16 16 17 17 18 19 21 21 22 22 22 22 22 21 20 20 20
12 11 11 11 11 11 11 13 13 14 14 15 15 15 16 15 15 14 14 14 15 17 17 16 16 16 16 16 17 18 20 20 21 21 22 22 22 21 21 22 21 21 21
12 12 11 12 12 11 12 12 13 14 14 15 15 16 16 16 16 16 16 16 16 16 16 19 18 18 18 19 20 20 19 19 19 21 21 22 21 21 22 21 22 22 22
11 11 11 11 12 12 13 12 13 13 13 14 14 14 15 16 16 15 15 16 17 17 19 20 21 21 22 22 22 21 20 20 21 21 22 22 22 22 23 22 22 23 24
12 12 12 12 12 12 12 13 11 12 12 12 13 14 14 13 14 14 14 14 15 17 19 20 21 21 22 21 22 21 21 21 21 21 22 22 22 23 23 23 23 24 25
12 13 12 13 12 13 13 13 14 13 12 12 12 12 12 13 13 13 13 14 14 15 18 19 19 19 20 21 21 21 22 22 21 22 22 22 22 24 23 24 24 24 25
14 18 12 13 13 12 13 13 13 13 14 14 13 12 12 13 12 12 12 13 17 17 17 18 19 19 20 20 21 22 23 23 22 23 23 23 24 24 25 25 25 28 27
13 12 13 13 13 14 14 14 14 13 14 15 14 12 12 11 12 11 12 16 18 18 18 18 18 19 20 20 21 22 23 23 23 23 24 24 25 25 26 26 27 28 29
15 18 16 13 15 14 13 13 13 13 13 13 13 13 12 13 14 14 14 15 17 18 19 19 19 20 20 21 22 22 23 24 24 24 24 25 25 26 27 28 28 28 29
14 14 17 14 14 14 14 14 14 14 14 14 13 13 12 13 14 14 15 16 17 18 19 20 20 21 21 22 23 23 24 24 24 25 25 25 27 28 27 27 28 30 30
13 14 16 15 14 14 14 14 14 14 14 14 14 14 12 13 13 13 14 15 16 17 19 20 21 21 21 23 23 24 24 25 24 24 25 27 28 28 29 29 30 29 30
12 13 15 15 15 16 16 15 15 15 15 15 14 15 15 14 14 14 14 15 17 19 20 21 22 23 23 23 23 23 24 25 25 24 26 27 29 28 29 29 30 31 30
12 13 14 15 16 16 16 16 16 17 16 16 16 16 16 15 14 14 15 16 19 21 22 22 23 23 24 24 24 23 23 23 23 24 24 25 28 30 29 31 30 31 31
13 13 14 14 15 16 16 16 17 17 17 17 17 17 17 16 16 14 17 20 21 23 24 24 24 24 24 25 24 24 24 24 25 25 25 25 27 28 31 31 31 31 31
14 14 14 15 16 16 16 17 17 18 18 18 18 18 18 18 18 18 20 22 23 23 23 24 25 25 25 25 25 25 26 25 27 25 26 25 27 29 31 31 32 31 30